Hourly Data Report for February 15, 2021

TORONTO CITY
ONTARIO
Current Station Operator: ECCC - MSC

43°40'00.000" N
79°24'00.000" W
112.50 m
6158355
71508
XTO

Download Data

Hourly Data (February 2021)
Hourly Data Report for February 15, 2021
TIME
LST
Temp Definition
°C
Dew Point Definition
°C
Rel Hum Definition
%
Precip. Amount Definition
mm

Wind Dir Definition
10's deg

Wind Spd Definition
km/h
Visibility Definition
km
Stn Press Definition
kPa
Hmdx Definition


Wind Chill Definition


Weather Definition


00:00 -5.6 -11.3 64 0.0       101.20     LegendNANA
01:00 -5.8 -11.4 65 0.0       101.19     LegendNANA
02:00 -5.8 -11.1 66 0.0       101.18     LegendNANA
03:00 -5.6 -10.8 66 0.0       101.17     LegendNANA
04:00 -5.6 -10.7 67 0.0       101.11     LegendNANA
05:00 -5.3 -10.4 67 0.0       101.09     LegendNANA
06:00 -5.3 -10.4 67 0.0       101.15     LegendNANA
07:00 -5.4 -9.8 71 0.0       101.15     LegendNANA
08:00 -5.4 -9.8 71 0.0       101.13     LegendNANA
09:00 -5.6 -9.9 71 0.0       101.10     LegendNANA
10:00 -5.5 -10.2 69 0.0       101.11     LegendNANA
11:00 -5.2 -9.8 70 0.0       101.14     LegendNANA
12:00 -4.6 -10.2 65 0.0       101.11     LegendNANA
13:00 -3.4 -11.3 54 0.0       100.96     LegendNANA
14:00 -3.1 -11.0 55 0.0       100.93     LegendNANA
15:00 -3.1 -11.1 54 0.0       100.93     LegendNANA
16:00 -4.1 -11.5 56 0.0       100.94     LegendNANA
17:00 -4.7 -12.3 55 0.0       100.88     LegendNANA
18:00 -4.7 -12.0 57 0.0       100.76     LegendNANA
19:00 -5.7 -11.1 66 0.0       100.70     LegendNANA
20:00 -6.7 -9.9 78 0.2       100.62     LegendNANA
21:00 -7.7 -10.3 82 0.5       100.55     LegendNANA
22:00 -8.1 -10.4 83 0.9       100.36     LegendNANA
23:00 -8.3 -10.6 84 1.1       100.01     LegendNANA

Notes on Data Quality.

Legend

  • E = Estimated
  • M = Missing
  • NA = Not Available*
  • [empty] = Indicates an unobserved value
Date modified: